Simultaneous Nadir Overpasses (SNOs) Predictions

Prediction of SNOs between NOAA-19 and METOP-C Satellite Orbit:

Table of predicted SNOs for the next 14.0 days since TLE Epoch: 6/3/2023
Index Date (NOAA-19) Time (NOAA-19) Lat,Lon (NOAA-19) SZA (NOAA-19 ) Date (METOP-C) Time (METOP-C) Lat,Lon (METOP-C) SZA (METOP-C ) Distance(km) Time Diff (sec)
1 06/07/2023 09:22:18 -80.92,-106.48 120.17 06/07/2023 09:23:28 -80.91,-106.63 120.16 2.77 70
2 06/07/2023 10:13:17 80.92, 60.94 59.85 06/07/2023 10:14:08 80.92, 60.87 59.86 1.17 51
3 06/07/2023 11:04:17 -80.92,-131.95 120.17 06/07/2023 11:04:49 -80.92,-131.79 120.15 2.82 32
4 06/07/2023 11:55:15 80.93, 35.85 59.88 06/07/2023 11:55:29 80.93, 35.71 59.88 2.45 14
5 06/07/2023 12:46:15 -80.92,-157.04 120.14 06/07/2023 12:46:10 -80.93,-156.95 120.13 1.67 5
6 06/07/2023 13:37:14 80.93, 10.39 59.88 06/07/2023 13:36:50 80.94, 10.55 59.90 3.02 24
7 06/07/2023 14:28:14 -80.92, 177.49 120.14 06/07/2023 14:27:32 -80.92, 177.53 120.16 0.96 42



Historial Predications of SNOs between NOAA-19 and METOP-C
